Hourly Data Report for February 06, 2003

TORONTO CITY
ONTARIO

43°40'00.000" N
79°24'00.000" W
112.50 m
6158355
71508
XTO

Download Data

Hourly Data (February 2003)
Hourly Data Report for February 6, 2003
TIME
LST
Temp Definition
°C
Dew Point Definition
°C
Rel Hum Definition
%
Precip. Amount Definition
mm

Wind Dir Definition
10's deg

Wind Spd Definition
km/h
Visibility Definition
km
Stn Press Definition
kPa
Hmdx Definition


Wind Chill Definition


Weather Definition


00:00 -6.0 -11.8 63     0 LegendMM 100.89     LegendNANA
01:00
02:00
03:00 -6.9 -11.2 71     0 LegendMM 100.92     LegendNANA
04:00 -6.8 -11.1 71     0 LegendMM 100.94     LegendNANA
05:00 -6.7 -10.8 73     0 LegendMM 100.99     LegendNANA
06:00 -6.4 -10.7 71     0 LegendMM 100.97     LegendNANA
07:00 -6.3 -10.8 70     0 LegendMM 101.00     LegendNANA
08:00
09:00 -5.3 -11.3 63     0 LegendMM 100.98     LegendNANA
10:00 -4.2 -12.9 51     0 LegendMM 100.97     LegendNANA
11:00 -3.2 -9.1 64     0 LegendMM 100.95     LegendNANA
12:00 -2.3 -7.1 70     0 LegendMM 100.86     LegendNANA
13:00
14:00 -1.3 -7.3 64     0 LegendMM 100.68     LegendNANA
15:00 -1.0 -8.3 58     0 LegendMM 100.63     LegendNANA
16:00 -0.5 -8.3 56     0 LegendMM 100.56     LegendNANA
17:00 -0.5 -7.6 59     0 LegendMM 100.53     LegendNANA
18:00 -1.0 -6.4 67     0 LegendMM 100.54     LegendNANA
19:00 -1.4 -5.2 75     0 LegendMM 100.53     LegendNANA
20:00 -1.4 -4.2 81     0 LegendMM 100.53     LegendNANA
21:00 -1.6 -4.0 84     0 LegendMM 100.48     LegendNANA
22:00 -1.6 -4.2 82     0 LegendMM 100.47     LegendNANA
23:00 -1.6 -4.2 82     0 LegendMM 100.43     LegendNANA

Notes on Data Quality.

Legend

  • E = Estimated
  • M = Missing
  • NA = Not Available*
  • [empty] = Indicates an unobserved value
Date modified: